Weather History for Saltillo, Mexico

Change the Weather History Date:

Friday, November 2, 2012

  Actual Average Record
Temperature  
Mean Temperature 60 °F -  
Max Temperature 73 °F 68 °F 86 °F (2011)
Min Temperature 46 °F 50 °F 40 °F (2013)
Degree Days  
Heating Degree Days 6    
Growing Degree Days 10 (Base 50)    
Moisture  
Dew Point 46 °F    
Average Humidity 47    
Maximum Humidity 63    
Minimum Humidity 17    
Precipitation  
Precipitation 0.00 in - - ()
Sea Level Pressure  
Sea Level Pressure 30.06 in    
Wind  
Wind Speed 4 mph ()    
Max Wind Speed 17 mph    
Max Gust Speed -    
Visibility 9.6 miles    
Events      
Averages and records for this station are not official NWS values.
T = Trace of Precipitation, MM = Missing Value Source: Averaged Metar Reports

Daily Weather History Graph

Daily Weather History Graph

Search for Another Location

Airport:

Trip Planner

Search our weather history database for the weather conditions in past years. The results will help you decide how hot, cold, wet, or windy it might be!

Date:

Astronomy

Nov. 02, 2012 Rise Set
Actual Time 6:52 AM CST 6:01 PM CST
Civil Twilight 6:29 AM CST 6:25 PM CST
Nautical Twilight 6:01 AM CST 6:52 PM CST
Astronomical Twilight 5:34 AM CST 7:19 PM CST
Moon 9:01 PM CST (11/2) 10:02 AM CST (11/2)
Length of Visible Light 11h 56m
Length of Day
11h 08m
Waning Gibbous, 87% of the Moon is Illuminated
Nov 2
Waning Gibbous
Nov 6
Last Quarter
Nov 13
New
Nov 20
First Quarter
Nov 28
Full

Hourly Weather History & Observations

Time (CST) Temp. Dew Point Humidity Pressure Visibility Wind Dir Wind Speed Gust Speed Precip Events Conditions
12:40 AM 60.8 °F 46.4 °F 59% 30.14 in 10.0 mi Calm Calm - N/A   Clear
2:40 AM 59.0 °F 46.4 °F 63% 30.11 in 10.0 mi South 6.9 mph - N/A   Clear
4:40 AM 59.0 °F 46.4 °F 63% 30.11 in 10.0 mi Calm Calm - N/A   Clear
5:40 AM 57.2 °F 44.6 °F 63% 30.12 in 10.0 mi Calm Calm - N/A   Clear
6:40 AM 57.2 °F 41.0 °F 55% 30.12 in 10.0 mi Calm Calm - N/A   Scattered Clouds
7:40 AM 60.8 °F 39.2 °F 45% 30.14 in 10.0 mi Calm Calm - N/A   Mostly Cloudy
8:30 AM 54 °F 39 °F 45% 30.06 in 11 mi SW 6.7 mph - -   Haze
8:40 AM 62.6 °F 39.2 °F 42% 30.15 in 10.0 mi Calm Calm - N/A   Mostly Cloudy
9:40 AM 71.6 °F 44.6 °F 38% 30.16 in 10.0 mi Calm Calm - N/A   Clear
10:40 AM 75.2 °F 50.0 °F 41% 30.14 in 10.0 mi Calm Calm - N/A   Clear
11:30 AM 71 °F 42 °F 23% 30.00 in 11 mi North 6.7 mph - -   Haze
11:40 AM 80.6 °F 50.0 °F 34% 30.12 in 10.0 mi Calm Calm - N/A   Clear
12:40 PM 84.2 °F 51.8 °F 33% 30.11 in 10.0 mi WNW 6.9 mph - N/A   Clear
1:40 PM 82.4 °F 50.0 °F 32% 30.04 in 10.0 mi NE 9.2 mph - N/A   Clear
2:30 PM 72 °F 36 °F 17% 29.87 in 11 mi ENE 8.9 mph - -   Haze
2:40 PM 78.8 °F 50.0 °F 36% 30.04 in 10.0 mi NE 11.5 mph - N/A   Scattered Clouds
3:40 PM 77.0 °F 50.0 °F 39% 30.04 in 10.0 mi NNE 17.3 mph - N/A   Scattered Clouds
4:40 PM 75.2 °F 50.0 °F 41% 30.04 in 10.0 mi NE 17.3 mph - N/A   Scattered Clouds
5:30 PM 68 °F 40 °F 25% 29.81 in 9 mi ENE 11.2 mph - -   Haze
5:40 PM 69.8 °F 51.8 °F 53% 30.05 in 10.0 mi NNE 13.8 mph - N/A   Scattered Clouds
6:40 PM 68.0 °F 51.8 °F 56% 30.06 in 10.0 mi NE 11.5 mph - N/A   Scattered Clouds
7:40 PM 64.4 °F 50.0 °F 59% 30.08 in 10.0 mi NNE 11.5 mph - N/A   Scattered Clouds
8:30 PM 53 °F 41 °F 53% 29.86 in 3 mi SSW 4.5 mph - -   Haze
8:40 PM 64.4 °F 50.0 °F 59% 30.11 in 10.0 mi North 5.8 mph - N/A   Clear
9:40 PM 62.6 °F 48.2 °F 59% 30.12 in 10.0 mi East 5.8 mph - N/A   Clear
10:40 PM 60.8 °F 48.2 °F 63% 30.12 in 10.0 mi Calm Calm - N/A   Clear
11:30 PM 53 °F 38 °F 45% 29.90 in 3 mi SSW 4.5 mph - -   Haze
11:40 PM 60.8 °F 48.2 °F 63% 30.12 in 10.0 mi Calm Calm - N/A   Clear